Weather History for Wilmington, DE

Change the Weather History Date:

Thursday, November 1, 2012

  Actual Average Record
Temperature  
Mean Temperature 47 °F 51 °F  
Max Temperature 52 °F 61 °F 85 °F (1950)
Min Temperature 42 °F 41 °F 27 °F (1917)
Degree Days  
Heating Degree Days 18 14  
Month to date heating degree days 18 14  
Since 1 July heating degree days 293 358  
Cooling Degree Days 0 0  
Month to date cooling degree days 0 0  
Year to date cooling degree days 1387 1145  
Moisture  
Dew Point 37 °F    
Average Humidity 68    
Maximum Humidity 76    
Minimum Humidity 59    
Precipitation  
Precipitation T in 0.10 in 2.01 in (1951)
Month to date precipitation T 0.10  
Year to date precipitation 31.41 36.60  
Snow  
Snow 0.00 in 0.00 in 0.00 in (1894)
Month to date snowfall 0.0 0.0  
Since 1 July snowfall 0.0 0.0  
Since 1 September snowfall 0.0 0.0  
Snow Depth 0.00 in    
Sea Level Pressure  
Sea Level Pressure 29.66 in    
Wind  
Wind Speed 9 mph (WSW)    
Max Wind Speed 17 mph    
Max Gust Speed 23 mph    
Visibility 10 miles    
Events Rain    
T = Trace of Precipitation, MM = Missing Value Source: NWS Daily Summary

Daily Weather History Graph

Daily Weather History Graph

Search for Another Location

Airport:

Trip Planner

Search our weather history database for the weather conditions in past years. The results will help you decide how hot, cold, wet, or windy it might be!

Date:

Astronomy

Nov. 01, 2012 Rise Set
Actual Time 7:31 AM EDT 5:59 PM EDT
Civil Twilight 7:03 AM EDT 6:27 PM EDT
Nautical Twilight 6:31 AM EDT 6:59 PM EDT
Astronomical Twilight 6:00 AM EDT 7:31 PM EDT
Moon 7:55 PM EDT (11/1) 10:01 AM EDT (11/1)
Length of Visible Light 11h 24m
Length of Day
10h 28m
Waning Gibbous, 93% of the Moon is Illuminated
Nov 1
Waning Gibbous
Nov 6
Last Quarter
Nov 13
New
Nov 20
First Quarter
Nov 28
Full

Hourly Weather History & Observations

Time (EDT) Temp. Windchill Dew Point Humidity Pressure Visibility Wind Dir Wind Speed Gust Speed Precip Events Conditions
12:51 AM 45.0 °F 40.6 °F 35.1 °F 68% 29.62 in 10.0 mi WSW 8.1 mph - N/A   Partly Cloudy
1:51 AM 44.1 °F 42.5 °F 35.1 °F 71% 29.62 in 10.0 mi WSW 3.5 mph - N/A   Scattered Clouds
2:51 AM 44.1 °F 41.5 °F 35.1 °F 71% 29.63 in 10.0 mi SW 4.6 mph - N/A   Clear
3:51 AM 42.1 °F 38.4 °F 35.1 °F 76% 29.63 in 10.0 mi WSW 5.8 mph - N/A   Clear
4:51 AM 44.1 °F 41.5 °F 36.0 °F 73% 29.63 in 10.0 mi WSW 4.6 mph - N/A   Overcast
5:51 AM 44.1 °F 41.5 °F 37.0 °F 76% 29.63 in 10.0 mi WSW 4.6 mph - N/A   Overcast
6:51 AM 45.0 °F 40.6 °F 36.0 °F 71% 29.63 in 10.0 mi WSW 8.1 mph - N/A   Overcast
7:51 AM 45.0 °F 41.2 °F 36.0 °F 71% 29.65 in 10.0 mi West 6.9 mph - N/A   Overcast
8:51 AM 46.0 °F 41.4 °F 36.0 °F 68% 29.66 in 10.0 mi West 9.2 mph - N/A   Scattered Clouds
9:51 AM 46.9 °F - 37.0 °F 68% 29.67 in 10.0 mi West 11.5 mph 19.6 mph N/A   Overcast
10:51 AM 48.0 °F - 37.0 °F 66% 29.68 in 10.0 mi West 13.8 mph 21.9 mph N/A   Overcast
11:51 AM 51.1 °F - 37.9 °F 61% 29.68 in 10.0 mi West 15.0 mph 20.7 mph N/A   Mostly Cloudy
12:51 PM 51.1 °F - 39.0 °F 63% 29.66 in 10.0 mi West 12.7 mph - N/A   Mostly Cloudy
1:19 PM 50.0 °F - 39.2 °F 66% 29.65 in 10.0 mi West 15.0 mph 19.6 mph N/A   Overcast
1:51 PM 51.1 °F - 37.9 °F 61% 29.65 in 10.0 mi WNW 13.8 mph - N/A   Overcast
2:51 PM 51.1 °F - 37.0 °F 59% 29.65 in 10.0 mi West 15.0 mph 21.9 mph N/A   Overcast
3:51 PM 48.9 °F - 37.9 °F 66% 29.65 in 10.0 mi West 9.2 mph - 0.00 in Rain Light Rain
4:51 PM 48.9 °F - 37.9 °F 66% 29.65 in 10.0 mi WSW 8.1 mph - 0.00 in   Overcast
5:51 PM 50.0 °F - 37.9 °F 63% 29.66 in 10.0 mi West 9.2 mph - N/A   Overcast
6:51 PM 48.9 °F - 37.0 °F 64% 29.68 in 10.0 mi West 9.2 mph - N/A   Overcast
7:51 PM 48.9 °F - 37.9 °F 66% 29.69 in 10.0 mi WSW 6.9 mph - N/A   Overcast
8:51 PM 48.0 °F - 37.9 °F 68% 29.69 in 10.0 mi WSW 6.9 mph - N/A   Mostly Cloudy
9:51 PM 48.0 °F - 37.9 °F 68% 29.69 in 10.0 mi West 9.2 mph - N/A   Overcast
10:51 PM 48.0 °F - 37.0 °F 66% 29.70 in 10.0 mi West 10.4 mph - N/A   Overcast
11:51 PM 48.2 °F - 37.4 °F 66% 29.71 in 10.0 mi WSW 9.2 mph - N/A   Overcast